Location: ???????
(55.3754°N, 39.3545°E)
Time: 06:58:04
(UTC+00:00)

Cosmos 2366 rocket - Pass Details

Date: 14 April 2026
Orbit: 954 x 996 km, 82.9° (Epoch: 13 May)

Event Time Altitude Azimuth Distance (km) Brightness Sun altitude
Rises 17:25:14 0° 172° (S) 3,640 6.6 -8.5°
Reaches altitude 10° 17:27:46 10° 168° (SSE) 2,693 5.9 -8.8°
Maximum altitude 17:33:44 55° 93° (E) 1,147 4.1 -9.5°
Drops below altitude 10° 17:39:42 10° 17° (NNE) 2,697 6.5 -10.2°
Sets 17:42:15 0° 14° (NNE) 3,646 7.3 -10.5°
